Flag Weather past 2 weeks in Jackson, Mississippi, U.S.A.

Now
50 °F

Sunny.


Feels Like: 45 °F
Forecast: 36 / 50 °F
Wind: 13 mph from Northwest

Location: Hawkins Field

Current Time: Nov 27, 2014 at 12:34:18 PM

Latest Report: Nov 27, 2014 at 11:53 AM


Visibility: 10 mi

Pressure: 30.46 "Hg

Humidity: 44%

Dew point: 29 °F

Location of JacksonLocation

Historic Weather in Jackson — Graph

°F

Jackson temperature yesterday

Maximum temperature yesterday: 67 °F (at 2:53 PM)
Minimum temperature yesterday: 29 °F (at 6:53 AM)
Average temperature yesterday: 49 °F

Past Weeks' High & Low Weather Summary

 TemperatureHumidityPressure
High70 °F (Nov 21, 11:53 AM)97% (Nov 16, 7:59 AM)30.52 "Hg (Nov 16, 7:59 AM)
Low26 °F (Nov 19, 3:53 AM)20% (Nov 19, 1:53 PM)29.48 "Hg (Nov 23, 2:53 PM)
Average47 °F64%30.17 "Hg
* Reported Nov 12 10:53 AM — Nov 27 10:53 AM, Jackson, Weather by CustomWeather, © 2014

Note: Actual official high and low records may vary slightly from our data, if they occured in-between our weather recording intervals... More about our weather records

Advertising

Jackson weather history for previous 24 hours

 ConditionsComfort  
Time TempWeatherWind HumidityBarometerVisibility
10:53 AM
Nov 27
48 °FSunny.7 mph48%30.47 "Hg10 mi
9:53 AM46 °FSunny.9 mph50%30.47 "Hg10 mi
8:53 AM44 °FSunny.12 mph53%30.46 "Hg10 mi
7:53 AM43 °FSunny.9 mph58%30.43 "Hg10 mi
6:53 AM42 °FSunny.7 mph60%30.41 "Hg10 mi
5:53 AM42 °FClear.9 mph62%30.38 "Hg10 mi
4:53 AM42 °FClear.5 mph62%30.35 "Hg10 mi
3:53 AM43 °FClear.6 mph60%30.32 "Hg10 mi
2:53 AM43 °FClear.6 mph58%30.28 "Hg10 mi
1:53 AM46 °FClear.6 mph51%30.27 "Hg10 mi
12:53 AM46 °FClear.5 mph54%30.24 "Hg10 mi
11:53 PM
Nov 26
47 °FClear.5 mph52%30.24 "Hg10 mi
10:53 PM51 °FClear.10 mph44%30.22 "Hg10 mi
9:53 PM49 °FClear.6 mph57%30.20 "Hg10 mi
8:53 PM52 °FClear.5 mph50%30.18 "Hg10 mi
7:53 PM56 °FClear.7 mph46%30.16 "Hg10 mi
6:53 PM58 °FClear.9 mph44%30.11 "Hg10 mi
5:53 PM61 °FClear.8 mph38%30.09 "Hg10 mi
4:53 PM63 °FSunny.17 mph35%30.07 "Hg10 mi
3:53 PM66 °FSunny.17 mph29%30.06 "Hg10 mi
2:53 PM67 °FSunny.17 mph29%30.04 "Hg10 mi
1:53 PM66 °FSunny.13 mph29%30.04 "Hg10 mi
12:53 PM65 °FSunny.16 mph28%30.05 "Hg10 mi
Weather by CustomWeather, © 2014

See weather overviewHow to use our weather pages